Location: All Nations United Methodist Church
(33.0215°N, 96.7483°W)
Time: 16:32:55
(UTC+00:00)

Daily predictions for brighter satellites

Satellite Brightness Start Highest point End
(mag) Time Altitude Azimuth Time Altitude Azimuth Time Altitude Azimuth
Cosmos 1092 Rocket 4.3 12:04:36 10° N 12:10:45 70° E 12:16:55 10° SSE
Cosmos 1689 Rocket 2.4 12:10:47 10° SSE 12:13:39 63° ENE 12:16:32 10° N
FALCON 9 DEB 2.7 12:12:05 24° SW 12:13:47 84° NW 12:16:54 10° NE
Meteor 2-13 Rocket 4.5 12:09:40 10° NNW 12:15:41 59° W 12:21:41 10° S
Cosmos 2034 Rocket 4.4 12:11:44 10° SSW 12:17:39 40° W 12:23:36 10° N
COSMO-SKYMED 1 3.0 12:15:03 10° S 12:19:07 41° W 12:23:14 10° NNW
FALCON 9 DEB 2.8 12:16:41 16° SW 12:19:09 86° NW 12:22:17 10° NE
YAOGAN 6 2.5 12:16:16 10° N 12:19:58 76° WNW 12:23:38 10° SSW
ERBS 3.9 12:16:59 10° SSW 12:20:02 36° SE 12:23:05 10° NE
NOAA 6 4.3 12:16:26 10° NNE 12:21:37 72° ESE 12:26:46 10° S
ATLAS CENTAUR R/B 2.1 12:22:35 23° WNW 12:23:00 24° NW 12:26:01 10° N
Cosmos 1315 Rocket 3.3 12:19:35 10° S 12:23:25 61° E 12:27:17 10° NNE
Nadezhda 4 Rocket 4.1 12:18:12 10° NNW 12:24:04 50° W 12:29:56 10° SSW
Cosmos 1634 Rocket 3.9 12:24:27 10° S 12:30:35 75° W 12:36:46 10° N
Cosmos 1703 3.6 12:29:06 10° NNW 12:32:48 43° W 12:36:31 10° SSW
H-2A R/B 3.5 12:29:52 10° NNW 12:33:06 29° WNW 12:36:22 10° SW
GEOS 3 Rocket 4.1 12:31:27 10° SE 12:36:43 66° NE 12:42:04 10° NNW
NOSS 3-2 (A) 3.8 12:32:14 10° WSW 12:37:19 37° NW 12:43:01 10° NNE
SEDSat Delta rocket 4.2 12:31:48 10° WSW 12:38:35 73° S 12:45:11 10° E
USA 307 4.3 12:37:21 15° WNW 12:39:22 20° NW 12:42:31 10° NNE
CZ-2C R/B 3.4 12:34:38 10° SSE 12:39:41 53° ENE 12:44:50 10° N
SL-8 R/B 3.8 12:35:35 14° WNW 12:39:44 65° SW 12:44:30 10° SE
Cosmos 2228 2.9 12:36:41 10° S 12:40:55 76° W 12:45:09 10° N
Cosmos 2369 Rocket 4.5 12:38:43 10° N 12:42:56 21° ENE 12:47:07 10° ESE
ERS-2 3.1 12:39:56 10° SSW 12:43:01 26° W 12:46:08 10° NW
Cosmos 1943 Rocket 3.6 12:37:53 10° N 12:43:09 38° ENE 12:48:23 10° SE
SL-16 R/B 2.6 12:38:54 10° SW 12:44:10 40° WNW 12:49:29 10° N
Cosmos 1606 Rocket 3.4 12:41:19 10° S 12:45:35 77° W 12:49:54 10° N
H-2A R/B 2.6 12:42:11 10° NNE 12:46:42 87° WNW 12:51:10 10° SSW
Cosmos 1346 Rocket 2.8 12:42:58 10° N 12:46:57 88° E 12:50:56 10° S
NOSS 3-2 (C) 3.4 12:43:38 10° SW 12:48:58 53° NW 12:54:56 10° NNE
Chandra Rocket (1) 2.5 12:45:33 10° W 12:49:08 32° SSW 12:51:27 10° SE
Cosmos 1300 3.0 12:46:24 10° SSW 12:50:02 43° W 12:53:40 10° N
Cosmos 2278 Rocket 3.3 12:46:21 10° NW 12:50:44 23° W 12:55:04 10° SSW
Aurora 2 Rocket 4.4 12:47:26 10° WSW 12:51:55 36° S 12:58:07 10° ESE
Spot 2 4.0 12:49:27 10° N 12:53:22 53° WNW 12:57:24 10° SSW
CZ-4B R/B 3.5 12:48:11 10° NNE 12:53:50 79° ESE 12:59:21 10° S
FALCON 9 DEB 3.7 12:52:04 10° WSW 12:54:56 31° NW 12:57:47 10° NNE
Cosmos 2237 Rocket 3.9 12:53:35 10° WNW 12:55:00 11° NW 12:56:26 10° NW
CZ-2C R/B 1.3 12:52:53 10° WNW 12:57:05 70° N 13:01:01 10° E
Lacrosse 5 rocket 1.4 12:54:25 10° NW 12:58:04 48° SW 13:01:34 10° SSE
MOS 1-B 4.4 12:52:35 10° N 12:58:17 63° WNW 13:03:58 10° SSW
CZ-3 Stage 3 0.6 12:56:29 10° W 12:59:03 43° S 13:00:40 10° ESE
Cosmos 2026 Rocket 4.1 12:54:16 10° NNW 13:00:29 58° W 13:06:42 10° S
SMAP 3.1 12:57:40 10° N 13:02:16 60° WNW 13:06:49 10° SSW
Meteor 1-11 4.3 12:57:06 10° NNW 13:02:33 55° W 13:07:59 10° S
Cosmos 2150 Rocket 4.2 12:58:53 10° NNW 13:04:11 62° WSW 13:09:31 10° S
Meteor 2-10 Rocket 4.2 13:00:10 10° S 13:05:55 71° E 13:11:42 10° NNE
CENTAUR R/B 2.9 13:00:49 10° WSW 13:06:05 39° NW 13:12:14 10° NNE
